Flag for India Weather past 2 weeks in Kolkata, West Bengal, India

Now
86 °F

Passing clouds.


Feels Like: 105 °F
Forecast: 81 / 92 °F
Wind: 7 mph from South

Location: Calcutta / Dum Dum

Current Time: Aug 20, 2014 at 8:10:54 PM

Latest Report: Aug 20, 2014 at 7:50 PM


Visibility: 2 mi

Pressure: 29.65 "Hg

Humidity: 89%

Dew point: 82 °F

Location of KolkataLocation

Historic Weather in Kolkata — Graph

°F

Kolkata temperature yesterday

Maximum temperature yesterday: 95 °F (at 1:50 PM)
Minimum temperature yesterday: 79 °F (at 12:20 AM)
Average temperature yesterday: 86 °F

Past Weeks' High & Low Weather Summary

 TemperatureHumidityPressure
High95 °F (Aug 6, 11:20 AM)94% (Aug 5, 11:50 PM)29.77 "Hg (Aug 5, 11:50 PM)
Low77 °F (Aug 20, 6:20 AM)59% (Aug 18, 2:50 PM)29.39 "Hg (Aug 8, 4:20 PM)
Average85 °F84%29.58 "Hg
* Reported Aug 5 6:50 PM — Aug 20 6:50 PM, Kolkata, Weather by CustomWeather, © 2014

Note: Actual official high and low records may vary slightly from our data, if they occured in-between our weather recording intervals... More about our weather records

Advertising

Kolkata weather history for previous 24 hours

 ConditionsComfort  
Time TempWeatherWind HumidityBarometerVisibility
6:50 PM
Aug 20
86 °FPassing clouds.7 mph89%29.62 "Hg2 mi
6:20 PM86 °FScattered clouds.7 mph89%29.62 "Hg2 mi
5:50 PM88 °FScattered clouds.7 mph84%29.62 "Hg2 mi
5:20 PM88 °FBroken clouds.7 mph84%29.62 "Hg2 mi
4:50 PM88 °FBroken clouds.7 mph84%29.62 "Hg2 mi
4:20 PM88 °FBroken clouds.7 mph84%29.62 "Hg2 mi
3:50 PM90 °FBroken clouds.7 mph79%29.62 "Hg2 mi
3:20 PM90 °FBroken clouds.7 mph75%29.62 "Hg2 mi
2:50 PM91 °FBroken clouds.7 mph71%29.65 "Hg2 mi
2:20 PM90 °FBroken clouds.7 mph71%29.65 "Hg2 mi
1:50 PM90 °FBroken clouds.9 mph71%29.68 "Hg2 mi
1:20 PM88 °FBroken clouds.8 mph70%29.68 "Hg2 mi
12:50 PM86 °FScattered clouds.6 mph75%29.68 "Hg2 mi
12:20 PM86 °FScattered clouds.7 mph79%29.71 "Hg2 mi
11:50 AM84 °FScattered clouds.7 mph89%29.71 "Hg2 mi
11:20 AM84 °FScattered clouds.8 mph89%29.71 "Hg2 mi
10:50 AM82 °FScattered clouds.6 mph89%29.71 "Hg2 mi
10:20 AM81 °FLight rain. Broken clouds.3 mph94%29.71 "Hg2 mi
9:50 AM81 °FLight rain. Broken clouds.5 mph94%29.74 "Hg2 mi
9:20 AM79 °FLight rain. More clouds than sun.8 mph94%29.74 "Hg2 mi
8:50 AM79 °FLight rain. More clouds than sun.7 mph94%29.74 "Hg2 mi
8:20 AM79 °FLight rain. More clouds than sun.5 mph94%29.74 "Hg1 mi
7:20 AM79 °FThunderstorms. More clouds than sun.3 mph94%29.74 "Hg1 mi
6:50 AM77 °FThunderstorms. More clouds than sun.3 mph94%29.74 "Hg1 mi
6:20 AM77 °FThunderstorms. More clouds than sun.3 mph94%29.71 "Hg1 mi
5:50 AM79 °FThunderstorms. More clouds than sun.3 mph89%29.71 "Hg1 mi
5:20 AM81 °FThunderstorms. Mostly cloudy.8 mph89%29.71 "Hg1 mi
4:20 AM84 °FPartly cloudy.9 mph89%29.68 "Hg2 mi
3:50 AM84 °FPartly cloudy.3 mph89%29.68 "Hg2 mi
3:20 AM84 °FPartly cloudy.3 mph89%29.65 "Hg2 mi
2:50 AM84 °FPartly cloudy.3 mph89%29.68 "Hg2 mi
2:20 AM82 °FPartly cloudy.No wind94%29.68 "Hg2 mi
1:50 AM82 °FPartly cloudy.No wind94%29.68 "Hg2 mi
1:20 AM82 °FPartly cloudy.No wind94%29.71 "Hg2 mi
12:50 AM82 °FPartly cloudy.No wind94%29.71 "Hg2 mi
12:20 AM82 °FPartly cloudy.No wind94%29.71 "Hg2 mi
11:50 PM
Aug 19
82 °FPartly cloudy.3 mph89%29.71 "Hg2 mi
11:20 PM82 °FPartly cloudy.5 mph89%29.71 "Hg2 mi
10:50 PM82 °FLight rain. Mostly cloudy.5 mph84%29.74 "Hg2 mi
10:20 PM82 °FLight rain. Mostly cloudy.3 mph84%29.74 "Hg2 mi
9:50 PM82 °FLight rain. Mostly cloudy.3 mph84%29.74 "Hg2 mi
9:20 PM82 °FLight rain. Partly cloudy.3 mph84%29.71 "Hg2 mi
8:50 PM82 °FLight rain. Partly cloudy.3 mph84%29.71 "Hg2 mi
8:20 PM84 °FLight rain. Partly cloudy.3 mph84%29.68 "Hg2 mi
Weather by CustomWeather, © 2014

See weather overviewHow to use our weather pages